Location: Namasale
(1.5000°N, 32.6167°E)
Time: 23:41:33
(UTC+00:00)

Transit 2A - Pass Details

Date: 26 April 2021
Orbit: 602 x 957 km, 66.7° (Epoch: 11 May)

Event Time Altitude Azimuth Distance (km) Brightness Sun altitude
Rises 02:31:07 0° 216° (SW) 3,381 - -18.1°
Reaches altitude 10° 02:33:53 10° 225° (SW) 2,385 - -17.5°
Exits shadow 02:37:08 28° 254° (WSW) 1,430 6.8 -16.7°
Maximum altitude 02:38:45 33° 288° (WNW) 1,238 6.6 -16.3°
Drops below altitude 10° 02:43:11 10° 353° (N) 2,164 8.4 -15.2°
Sets 02:45:36 0° 2° (N) 3,025 9.3 -14.6°
